cover

John Cosani - Spaceman (Original Mix)

Get it on iTunes StoreListen on Apple Music

Trackname / Key / BPM / Publish dateArtists, Remixers / Label
123 bpm, 8B / C major, 2016-01-26, Progressive House,  0  30

Tracks in release The Best of 2015

#Trackname / Key / BPM / Publish dateArtists, Remixers / Label
1 123 bpm, 5A / C minor, 2016-01-26, Progressive House,  0  30
2 121 bpm, 10B / D major, 2016-01-26, Progressive House,  0  30
3 125 bpm, 10A / B minor, 2016-01-26, Trance,  0  30
4 125 bpm, 10A / B minor, 2016-01-26, Trance,  0  30
5 130 bpm, 1B / B major, 2016-01-26, Trance,  0  30
6 125 bpm, 1A / Ab minor, 2016-01-26, Progressive House,  0  30
7 122 bpm, 5B / Eb major, 2016-01-26, Progressive House,  0  30
8 124 bpm, 10A / B minor, 2016-01-26, Progressive House,  0  30
9 125 bpm, 2A / Eb minor, 2016-01-26, Progressive House,  0  30
10 124 bpm, 6B / Bb major, 2016-01-26, Progressive House,  0  30
11 125 bpm, 5B / Eb major, 2016-01-26, Progressive House,  0  30
12 123 bpm, 6A / G minor, 2016-01-26, Progressive House,  0  30
13 123 bpm, 8B / C major, 2016-01-26, Progressive House,  0  30
14 122 bpm, 7A / D minor, 2016-01-26, Progressive House,  0  30
15 121 bpm, 12A / Db minor, 2016-01-26, Deep House,  0  30
16 122 bpm, 11A / F# minor, 2016-01-26, Progressive House,  0  30
17 120 bpm, 12B / E major, 2016-01-26, Progressive House,  0  30
18 120 bpm, 4A / F minor, 2016-01-26, Progressive House,  0  30
19 117 bpm, 2A / Eb minor, 2016-01-26, Deep House,  0  30
20 122 bpm, 6A / G minor, 2016-01-26, Progressive House,  0  30
21 123 bpm, 8A / A minor, 2016-01-26, Progressive House,  0  30
22 120 bpm, 4A / F minor, 2016-01-26, Progressive House,  0  30
23 124 bpm, 11A / F# minor, 2016-01-26, Progressive House,  0  30
24 125 bpm, 10A / B minor, 2016-01-26, Progressive House,  0  30
25 122 bpm, 10B / D major, 2016-01-26, Progressive House,  0  30
26 120 bpm, 7A / D minor, 2016-01-26, Progressive House,  0  30
27 122 bpm, 3B / Db major, 2016-01-26, Deep House,  0  30
28 124 bpm, 7A / D minor, 2016-01-26, Progressive House,  0  30
29 126 bpm, 5A / C minor, 2016-01-26, Progressive House,  0  30
30 123 bpm, 5A / C minor, 2016-01-26, Progressive House,  0  30
×

Sign in

Sign in to access your personalized pages, follow artists and labels you love, and create playlists fromyour favorite tracks.

Please wait...